This demonstration page uses our WeatherBlox Daily Observations layout. Learn more.

Left ArrowRight Arrow

41.12389, -100.76542

Hourly Observations for November 30, 2021

Temp ( °F °C ) Dew Point ( °F °C ) Humidity (%) Winds ( mph kmh ) Pressure ( in mb ) Visibility ( mi km ) Precip ( " mm )
12:53 am 00:53 Clear 30 -1.1 25 -3.9 82 82 WSW 3 6 30.09 1019 10 16 N/A
1:53 am 01:53 Clear 31 -0.6 26 -3.3 82 82 N N/A 30.09 1019 10 16 N/A
2:53 am 02:53 Clear 30 -1.1 25 -3.9 82 82 N N/A 30.11 1020 10 16 N/A
3:53 am 03:53 Clear 32 undefined 27 -2.8 82 82 NW 3 6 30.13 1020 10 16 N/A
4:53 am 04:53 Clear 38 3.3 29 -1.7 70 70 N N/A 30.15 1021 10 16 N/A
5:53 am 05:53 Clear 41 5 31 -0.6 67 67 N N/A 30.17 1022 10 16 N/A
6:53 am 06:53 Partly Cloudy 39 3.9 31 -0.6 73 73 S 6 9 30.21 1023 10 16 N/A
7:53 am 07:53 Cloudy 36 2.2 30 -1.1 79 79 NNW 7 11 30.25 1024 10 16 N/A
8:53 am 08:53 Cloudy 40 4.4 34 1.1 79 79 SSW 3 6 30.27 1025 10 16 N/A
9:53 am 09:53 Mostly Cloudy 47 8.3 36 2.2 66 66 SSE 5 7 30.25 1024 10 16 N/A
10:53 am 10:53 Sunny 54 12.2 37 2.8 53 53 N N/A 30.24 1024 10 16 N/A
11:53 am 11:53 Sunny 57 13.9 36 2.2 45 45 E 5 7 30.20 1023 10 16 N/A
12:53 pm 12:53 Sunny 59 15 36 2.2 42 42 S 7 11 30.16 1021 10 16 N/A
1:53 pm 13:53 Sunny 61 16.1 34 1.1 36 36 SSW 15 24 30.12 1020 10 16 N/A
2:53 pm 14:53 Sunny 61 16.1 32 undefined 34 34 SSW 14 22 30.06 1018 10 16 N/A
3:53 pm 15:53 Sunny 60 15.6 31 -0.6 33 33 SW 15 24 30.05 1018 10 16 N/A
4:53 pm 16:53 Sunny 56 13.3 33 0.6 42 42 SSW 8 13 30.04 1017 10 16 N/A
5:53 pm 17:53 Clear 50 10 33 0.6 52 52 S 7 11 30.00 1016 10 16 N/A
6:53 pm 18:53 Clear 49 9.4 33 0.6 55 55 N N/A 30.01 1016 10 16 N/A
7:53 pm 19:53 Clear 45 7.2 32 undefined 61 61 N N/A 30.00 1016 10 16 N/A
8:53 pm 20:53 Clear 44 6.7 33 0.6 65 65 N N/A 30.01 1016 10 16 N/A
9:53 pm 21:53 Cloudy 45 7.2 34 1.1 66 66 WNW 5 7 30.00 1016 10 16 N/A
10:53 pm 22:53 Mostly Clear 38 3.3 31 -0.6 76 76 WNW 7 11 30.02 1017 10 16 N/A
11:53 pm 23:53 Clear 35 1.7 29 -1.7 78 78 WNW 7 11 30.03 1017 10 16 N/A

Powered by AerisWeather